Time,TemperatureF,DewpointF,PressureIn,WindDirection,WindDirectionDegrees,WindSpeedMPH,WindSpeedGustMPH,Humidity,HourlyPrecipIn,Conditions,Clouds,dailyrainin,SoftwareType,DateUTC
2013-11-19 00:06:00,73.0,72.0,29.95,ENE,74,0.0,2.0,95,0.00,,,0.03,weatherlink.com 1.10,2013-11-19 05:06:00,
2013-11-19 00:21:00,73.1,72.0,29.95,ENE,74,0.0,1.0,95,0.00,,,0.03,weatherlink.com 1.10,2013-11-19 05:21:00,
2013-11-19 00:37:00,73.0,72.0,29.95,ENE,74,1.0,1.0,95,0.00,,,0.03,weatherlink.com 1.10,2013-11-19 05:37:00,
2013-11-19 00:52:00,73.0,72.0,29.95,ENE,74,0.0,3.0,95,0.00,,,0.03,weatherlink.com 1.10,2013-11-19 05:52:00,
2013-11-19 01:07:00,72.9,71.0,29.94,ENE,74,1.0,1.0,94,0.00,,,0.03,weatherlink.com 1.10,2013-11-19 06:07:00,
2013-11-19 01:22:00,72.9,71.0,29.94,ENE,74,0.0,1.0,94,0.00,,,0.03,weatherlink.com 1.10,2013-11-19 06:22:00,
2013-11-19 01:37:00,72.9,71.0,29.93,ENE,74,0.0,1.0,95,0.00,,,0.03,weatherlink.com 1.10,2013-11-19 06:37:00,
2013-11-19 01:52:00,72.8,71.0,29.93,ENE,74,0.0,0.0,95,0.00,,,0.03,weatherlink.com 1.10,2013-11-19 06:52:00,
2013-11-19 02:07:00,72.4,71.0,29.92,ENE,74,0.0,0.0,95,0.00,,,0.03,weatherlink.com 1.10,2013-11-19 07:07:00,
2013-11-19 02:22:00,72.2,71.0,29.92,ENE,74,0.0,1.0,95,0.00,,,0.03,weatherlink.com 1.10,2013-11-19 07:22:00,
2013-11-19 02:37:00,72.2,71.0,29.91,ENE,74,0.0,2.0,95,0.00,,,0.03,weatherlink.com 1.10,2013-11-19 07:37:00,
2013-11-19 02:52:00,72.0,71.0,29.91,ENE,74,1.0,2.0,95,0.00,,,0.03,weatherlink.com 1.10,2013-11-19 07:52:00,
2013-11-19 03:07:00,72.1,71.0,29.90,East,83,2.0,5.0,95,0.00,,,0.03,weatherlink.com 1.10,2013-11-19 08:07:00,
2013-11-19 03:22:00,72.1,71.0,29.90,East,84,0.0,5.0,95,0.00,,,0.03,weatherlink.com 1.10,2013-11-19 08:22:00,
2013-11-19 03:37:00,72.1,71.0,29.90,East,84,0.0,2.0,95,0.00,,,0.03,weatherlink.com 1.10,2013-11-19 08:37:00,
2013-11-19 03:52:00,72.2,71.0,29.90,East,88,0.0,5.0,95,0.00,,,0.03,weatherlink.com 1.10,2013-11-19 08:52:00,
2013-11-19 04:07:00,72.4,71.0,29.90,East,88,0.0,3.0,95,0.00,,,0.03,weatherlink.com 1.10,2013-11-19 09:07:00,
2013-11-19 04:22:00,72.5,71.0,29.90,East,88,0.0,2.0,95,0.00,,,0.03,weatherlink.com 1.10,2013-11-19 09:22:00,
2013-11-19 04:37:00,72.7,71.0,29.91,East,88,0.0,1.0,95,0.00,,,0.03,weatherlink.com 1.10,2013-11-19 09:37:00,
2013-11-19 04:52:00,72.6,71.0,29.91,East,88,0.0,0.0,94,0.00,,,0.03,weatherlink.com 1.10,2013-11-19 09:52:00,
2013-11-19 05:07:00,72.6,71.0,29.92,East,88,0.0,0.0,95,0.00,,,0.03,weatherlink.com 1.10,2013-11-19 10:07:00,
2013-11-19 05:22:00,72.8,71.0,29.92,East,88,0.0,0.0,95,0.00,,,0.03,weatherlink.com 1.10,2013-11-19 10:22:00,
2013-11-19 05:37:00,72.6,71.0,29.92,East,88,0.0,1.0,94,0.01,,,0.04,weatherlink.com 1.10,2013-11-19 10:37:00,
2013-11-19 05:52:00,72.6,71.0,29.92,East,88,0.0,0.0,95,0.01,,,0.04,weatherlink.com 1.10,2013-11-19 10:52:00,
2013-11-19 06:07:00,72.4,71.0,29.91,East,88,0.0,0.0,96,0.01,,,0.04,weatherlink.com 1.10,2013-11-19 11:07:00,
2013-11-19 06:22:00,72.1,71.0,29.91,East,88,0.0,1.0,96,0.01,,,0.04,weatherlink.com 1.10,2013-11-19 11:22:00,
2013-11-19 06:37:00,72.1,71.0,29.92,East,88,0.0,3.0,96,0.00,,,0.04,weatherlink.com 1.10,2013-11-19 11:37:00,
2013-11-19 06:52:00,72.1,71.0,29.92,East,88,0.0,1.0,96,0.00,,,0.04,weatherlink.com 1.10,2013-11-19 11:52:00,
2013-11-19 07:07:00,72.2,71.0,29.93,East,88,0.0,1.0,97,0.00,,,0.04,weatherlink.com 1.10,2013-11-19 12:07:00,
2013-11-19 07:22:00,72.3,71.0,29.93,East,88,0.0,1.0,97,0.00,,,0.04,weatherlink.com 1.10,2013-11-19 12:22:00,
2013-11-19 07:37:00,72.6,72.0,29.94,East,88,0.0,3.0,97,0.00,,,0.04,weatherlink.com 1.10,2013-11-19 12:37:00,
2013-11-19 07:52:00,72.6,72.0,29.95,SW,236,0.0,5.0,97,0.00,,,0.04,weatherlink.com 1.10,2013-11-19 12:52:00,
2013-11-19 08:07:00,72.8,72.0,29.95,WSW,238,0.0,4.0,97,0.00,,,0.04,weatherlink.com 1.10,2013-11-19 13:07:00,
2013-11-19 08:22:00,73.0,72.0,29.95,WNW,289,0.0,4.0,97,0.00,,,0.04,weatherlink.com 1.10,2013-11-19 13:22:00,
2013-11-19 08:37:00,73.2,72.0,29.96,WNW,289,0.0,3.0,97,0.00,,,0.04,weatherlink.com 1.10,2013-11-19 13:37:00,
2013-11-19 08:52:00,73.5,72.0,29.96,NW,311,5.0,8.0,96,0.00,,,0.04,weatherlink.com 1.10,2013-11-19 13:52:00,
2013-11-19 09:07:00,74.7,73.0,29.96,NW,321,2.0,5.0,93,0.01,,,0.05,weatherlink.com 1.10,2013-11-19 14:07:00,
2013-11-19 09:22:00,75.8,72.0,29.96,NW,306,2.0,7.0,89,0.01,,,0.05,weatherlink.com 1.10,2013-11-19 14:22:00,
2013-11-19 09:37:00,76.2,72.0,29.96,WNW,289,6.0,6.0,87,0.01,,,0.05,weatherlink.com 1.10,2013-11-19 14:37:00,
2013-11-19 09:52:00,76.9,73.0,29.96,West,278,1.0,7.0,86,0.01,,,0.05,weatherlink.com 1.10,2013-11-19 14:52:00,
2013-11-19 10:07:00,77.5,73.0,29.97,NNW,329,4.0,7.0,85,0.00,,,0.05,weatherlink.com 1.10,2013-11-19 15:07:00,
2013-11-19 10:22:00,77.8,72.0,29.96,WNW,293,2.0,8.0,83,0.00,,,0.05,weatherlink.com 1.10,2013-11-19 15:22:00,
2013-11-19 10:37:00,78.5,73.0,29.96,NNW,338,4.0,8.0,82,0.00,,,0.05,weatherlink.com 1.10,2013-11-19 15:37:00,
2013-11-19 10:52:00,79.1,73.0,29.96,NW,304,1.0,5.0,82,0.00,,,0.05,weatherlink.com 1.10,2013-11-19 15:52:00,
2013-11-19 11:07:00,79.9,73.0,29.96,NW,323,4.0,5.0,80,0.00,,,0.05,weatherlink.com 1.10,2013-11-19 16:07:00,
2013-11-19 11:22:00,80.4,73.0,29.95,NW,316,5.0,8.0,79,0.00,,,0.05,weatherlink.com 1.10,2013-11-19 16:22:00,
2013-11-19 11:37:00,81.2,73.0,29.95,WNW,285,1.0,6.0,76,0.00,,,0.05,weatherlink.com 1.10,2013-11-19 16:37:00,
2013-11-19 11:52:00,81.9,72.0,29.94,NW,323,2.0,6.0,73,0.00,,,0.05,weatherlink.com 1.10,2013-11-19 16:52:00,
2013-11-19 12:07:00,81.2,73.0,29.93,NW,316,0.0,4.0,75,0.00,,,0.05,weatherlink.com 1.10,2013-11-19 17:07:00,
2013-11-19 12:22:00,81.6,73.0,29.92,NW,319,2.0,5.0,74,0.00,,,0.05,weatherlink.com 1.10,2013-11-19 17:22:00,
2013-11-19 12:37:00,82.5,73.0,29.91,NW,321,6.0,6.0,73,0.00,,,0.05,weatherlink.com 1.10,2013-11-19 17:37:00,
2013-11-19 12:52:00,82.0,72.0,29.91,NW,321,4.0,5.0,71,0.00,,,0.05,weatherlink.com 1.10,2013-11-19 17:52:00,
2013-11-19 13:07:00,81.7,72.0,29.91,WNW,292,4.0,5.0,73,0.00,,,0.05,weatherlink.com 1.10,2013-11-19 18:07:00,
2013-11-19 13:22:00,81.5,72.0,29.90,NW,311,1.0,7.0,73,0.00,,,0.05,weatherlink.com 1.10,2013-11-19 18:22:00,
2013-11-19 13:37:00,81.2,74.0,29.90,WSW,257,0.0,8.0,78,0.01,,,0.06,weatherlink.com 1.10,2013-11-19 18:37:00,
2013-11-19 13:52:00,80.3,73.0,29.89,WNW,300,0.0,3.0,77,0.01,,,0.06,weatherlink.com 1.10,2013-11-19 18:52:00,
2013-11-19 14:07:00,80.8,73.0,29.89,WNW,300,1.0,3.0,77,0.01,,,0.06,weatherlink.com 1.10,2013-11-19 19:07:00,
2013-11-19 14:22:00,81.3,73.0,29.89,WNW,300,0.0,0.0,76,0.01,,,0.06,weatherlink.com 1.10,2013-11-19 19:22:00,
2013-11-19 14:37:00,80.5,73.0,29.89,ENE,61,4.0,10.0,79,0.00,,,0.06,weatherlink.com 1.10,2013-11-19 19:37:00,
2013-11-19 14:52:00,79.5,73.0,29.89,North,355,0.0,8.0,81,0.00,,,0.06,weatherlink.com 1.10,2013-11-19 19:52:00,
2013-11-19 15:07:00,77.3,73.0,29.89,WNW,296,0.0,4.0,87,0.09,,,0.15,weatherlink.com 1.10,2013-11-19 20:07:00,
2013-11-19 15:22:00,75.4,73.0,29.89,NW,323,2.0,5.0,91,0.15,,,0.21,weatherlink.com 1.10,2013-11-19 20:22:00,
2013-11-19 15:37:00,75.2,73.0,29.90,NW,323,0.0,2.0,94,0.19,,,0.25,weatherlink.com 1.10,2013-11-19 20:37:00,
2013-11-19 15:52:00,74.6,73.0,29.90,ENE,73,0.0,4.0,94,0.30,,,0.36,weatherlink.com 1.10,2013-11-19 20:52:00,
2013-11-19 16:07:00,74.5,73.0,29.91,ENE,73,0.0,2.0,94,0.21,,,0.36,weatherlink.com 1.10,2013-11-19 21:07:00,
2013-11-19 16:22:00,75.1,74.0,29.91,ENE,73,0.0,0.0,95,0.14,,,0.36,weatherlink.com 1.10,2013-11-19 21:22:00,
2013-11-19 16:37:00,74.9,73.0,29.91,ENE,73,1.0,1.0,95,0.11,,,0.36,weatherlink.com 1.10,2013-11-19 21:37:00,
2013-11-19 16:52:00,74.6,73.0,29.92,NNW,340,3.0,4.0,94,0.03,,,0.39,weatherlink.com 1.10,2013-11-19 21:52:00,
2013-11-19 17:07:00,74.4,73.0,29.92,NNW,343,5.0,6.0,94,0.04,,,0.40,weatherlink.com 1.10,2013-11-19 22:07:00,
2013-11-19 17:22:00,74.2,73.0,29.92,NNW,342,2.0,6.0,95,0.04,,,0.00,weatherlink.com 1.10,2013-11-19 22:22:00,
2013-11-19 17:38:00,74.0,73.0,29.92,NNE,15,3.0,7.0,95,0.04,,,0.00,weatherlink.com 1.10,2013-11-19 22:38:00,
2013-11-19 17:53:00,74.0,73.0,29.93,NNE,15,0.0,3.0,95,0.01,,,0.00,weatherlink.com 1.10,2013-11-19 22:53:00,
2013-11-19 18:08:00,74.0,73.0,29.93,NNE,15,0.0,0.0,96,0.00,,,0.00,weatherlink.com 1.10,2013-11-19 23:08:00,
2013-11-19 18:23:00,73.8,73.0,29.93,NNE,15,0.0,0.0,96,0.00,,,0.00,weatherlink.com 1.10,2013-11-19 23:23:00,
2013-11-19 18:38:00,73.7,73.0,29.94,NNE,15,0.0,1.0,96,0.00,,,0.00,weatherlink.com 1.10,2013-11-19 23:38:00,
2013-11-19 18:53:00,73.6,72.0,29.94,NNE,15,0.0,3.0,96,0.00,,,0.00,weatherlink.com 1.10,2013-11-19 23:53:00,
2013-11-19 19:08:00,73.4,72.0,29.94,NNE,15,0.0,2.0,96,0.00,,,0.00,weatherlink.com 1.10,2013-11-20 00:08:00,
2013-11-19 19:23:00,73.1,72.0,29.95,NNE,15,1.0,1.0,96,0.00,,,0.00,weatherlink.com 1.10,2013-11-20 00:23:00,
2013-11-19 19:38:00,73.0,72.0,29.95,NNE,15,0.0,2.0,97,0.00,,,0.00,weatherlink.com 1.10,2013-11-20 00:38:00,
2013-11-19 19:53:00,73.1,72.0,29.95,NNE,15,0.0,1.0,97,0.00,,,0.00,weatherlink.com 1.10,2013-11-20 00:53:00,
2013-11-19 20:08:00,73.2,72.0,29.95,NNE,15,0.0,1.0,97,0.00,,,0.00,weatherlink.com 1.10,2013-11-20 01:08:00,
2013-11-19 20:23:00,73.1,72.0,29.96,NNE,15,0.0,1.0,97,0.00,,,0.00,weatherlink.com 1.10,2013-11-20 01:23:00,
2013-11-19 20:38:00,72.8,72.0,29.96,NNE,15,0.0,1.0,97,0.00,,,0.00,weatherlink.com 1.10,2013-11-20 01:38:00,
2013-11-19 20:53:00,72.7,72.0,29.97,NNE,15,0.0,1.0,97,0.00,,,0.00,weatherlink.com 1.10,2013-11-20 01:53:00,
2013-11-19 21:08:00,72.7,72.0,29.97,NNE,15,1.0,3.0,97,0.00,,,0.00,weatherlink.com 1.10,2013-11-20 02:08:00,
2013-11-19 21:23:00,72.5,72.0,29.97,NNE,15,0.0,1.0,97,0.00,,,0.00,weatherlink.com 1.10,2013-11-20 02:23:00,
2013-11-19 21:38:00,72.5,72.0,29.97,NNE,15,0.0,2.0,97,0.00,,,0.00,weatherlink.com 1.10,2013-11-20 02:38:00,
2013-11-19 21:53:00,72.3,71.0,29.97,NNE,15,0.0,3.0,97,0.00,,,0.00,weatherlink.com 1.10,2013-11-20 02:53:00,
2013-11-19 22:08:00,72.3,71.0,29.97,NNE,15,1.0,4.0,97,0.00,,,0.00,weatherlink.com 1.10,2013-11-20 03:08:00,
2013-11-19 22:23:00,72.3,71.0,29.98,NNE,15,1.0,4.0,97,0.00,,,0.00,weatherlink.com 1.10,2013-11-20 03:23:00,
2013-11-19 22:38:00,72.3,71.0,29.97,NNE,15,1.0,4.0,97,0.00,,,0.00,weatherlink.com 1.10,2013-11-20 03:38:00,
2013-11-19 22:53:00,72.1,71.0,29.97,NNE,15,0.0,2.0,97,0.00,,,0.00,weatherlink.com 1.10,2013-11-20 03:53:00,
2013-11-19 23:08:00,72.0,71.0,29.97,NNE,15,0.0,0.0,97,0.00,,,0.00,weatherlink.com 1.10,2013-11-20 04:08:00,
2013-11-19 23:23:00,71.9,71.0,29.97,NNE,15,0.0,0.0,97,0.00,,,0.00,weatherlink.com 1.10,2013-11-20 04:23:00,
2013-11-19 23:38:00,71.4,71.0,29.96,NNE,15,0.0,0.0,97,0.00,,,0.00,weatherlink.com 1.10,2013-11-20 04:38:00,
2013-11-19 23:53:00,71.3,70.0,29.96,NNE,15,0.0,0.0,97,0.00,,,0.00,weatherlink.com 1.10,2013-11-20 04:53:00,